Meath Environmental Platform

Observations for Trim Patrick St

Time AQI Temp °C Hum % Pres Pa CO μg/m³ H₂S μg/m³ NO μg/m³ NO₂ μg/m³ O₃ μg/m³ SO₂ μg/m³ PM1 μg/m³ PM2.5 μg/m³ PM10 μg/m³
Sunday 9 August 2026
02:01 2 18.8 67 83,065 0 2.9 1.54 19.53 38.31 0.29 2 6.07 6.68
02:00 2 18.7 68 82,882 0 2.8 1.36 16.84 40.09 0.68 2.86 5.99 6.59
01:59 2 18.8 68 82,754 0 1.22 1.51 13.29 39.65 0.45 2 6.73 7.4
01:58 2 18.8 68 82,614 0 2.95 1.54 16.42 34.15 0.75 2.86 6.74 7.42
01:57 2 18.8 67 82,364 0 2.74 1.83 26.3 34.43 0 3.71 7.52 8.28
01:56 2 18.8 68 82,033 0 2.32 1.7 19.46 39.57 0.37 2 6 6.6
01:55 2 18.8 68 81,933 0 1.38 2.01 12.75 41.07 1.13 2.86 6.72 7.39
01:54 2 18.8 68 81,870 0 3.3 2.04 19.09 43.61 0.31 2.86 6.72 7.39
01:53 2 18.8 67 81,589 0 2.27 2.32 14.13 38.22 0.48 3.71 6.79 7.47
01:52 2 18.8 68 81,370 0 2.22 2.17 18.42 37.49 0.29 2 6.03 6.63
01:51 2 18.8 68 81,159 0 3.85 2 28.38 32.31 0.42 3.71 7.47 8.21
01:50 2 18.8 67 80,925 0 3.93 1.9 29.94 33.92 0.15 3.71 6.79 7.47
01:49 2 18.8 68 80,604 0 1.3 1.95 12.41 44.32 1.11 2 5.3 5.83
01:48 2 18.8 68 80,549 0 1.54 1.56 17.61 37.05 0.02 2 6 6.6
01:47 2 18.8 68 80,465 0 1.54 1.71 11.9 40.17 0.56 3.71 7.46 8.21
01:46 2 18.8 68 80,411 0 2.77 1.72 19.88 43.91 0.67 2.86 6.75 7.42
01:45 2 18.8 68 80,301 0 0.8 1.6 12.75 38.15 0.32 3.71 7.46 8.21
01:44 2 18.8 68 80,250 0 3.4 1.42 18.82 43.05 0.26 4.57 8.22 9.04
01:43 2 18.8 67 80,179 0 2.77 1.48 21.05 40.05 0.26 3.71 7.51 8.26
01:42 2 18.8 68 80,177 0 1.67 1.63 18.04 38.16 0.64 3.71 7.47 8.21